When you browse on this site, cookies collect data to enhance your experience and personalize the content and advertising you see.
Visit our Privacy Policy to learn more. By continuing to use the site, you agree to this use of cookies and data.
  • In Sweden
  • List of Countries
  • For 7 days
  • Water Temperature
  • Satellite Maps
  • Weather Map
  • Weather Widgets
  • user-avatar
    Login

    Hourly Weather Makarovka

    Today, 24 May, Friday

    Time Temperature Precipitation Wind Pressure Humidity
    00:00 +14°C° 0 mm 2 mps 740 mmHg 88%
    01:00 +14°C° 0 mm 2 mps 740 mmHg 88%
    02:00 +14°C° 0 mm 2 mps 740 mmHg 89%
    03:00 +14°C° 0 mm 2 mps 739 mmHg 90%
    04:00 +14°C° 0 mm 2 mps 740 mmHg 89%
    05:00 +14°C° 0 mm 3 mps 740 mmHg 88%
    06:00 +16°C° 0 mm 3 mps 741 mmHg 88%
    07:00 +17°C° 0 mm 4 mps 741 mmHg 85%
    08:00 +16°C° 0 mm 5 mps 742 mmHg 81%
    09:00 +17°C° 0 mm 6 mps 742 mmHg 78%
    10:00 +17°C° 0 mm 6 mps 743 mmHg 76%
    11:00 +17°C° 0 mm 6 mps 743 mmHg 74%
    12:00 +16°C° 0 mm 6 mps 744 mmHg 72%
    13:00 +16°C° 0 mm 6 mps 744 mmHg 71%
    14:00 +16°C° 0 mm 5 mps 745 mmHg 69%
    15:00 +16°C° 0 mm 5 mps 745 mmHg 68%
    16:00 +16°C° 0 mm 5 mps 745 mmHg 68%
    17:00 +16°C° 0 mm 5 mps 746 mmHg 67%
    18:00 +17°C° 0 mm 4 mps 746 mmHg 67%
    19:00 +14°C° 0 mm 4 mps 747 mmHg 71%
    20:00 +13°C° 0 mm 4 mps 747 mmHg 75%
    21:00 +11°C° 0 mm 4 mps 748 mmHg 78%
    22:00 +10°C° 0 mm 4 mps 748 mmHg 77%
    23:00 +10°C° 0 mm 4 mps 748 mmHg 77%

    Tomorrow, 25 May, Saturday

    Time Temperature Precipitation Wind Pressure Humidity
    00:00 +8°C° 0 mm 4 mps 748 mmHg 76%
    01:00 +8°C° 0 mm 4 mps 749 mmHg 74%
    02:00 +7°C° 0 mm 4 mps 749 mmHg 72%
    03:00 +6°C° 0 mm 4 mps 749 mmHg 70%
    04:00 +7°C° 0 mm 5 mps 749 mmHg 68%
    05:00 +7°C° 0 mm 5 mps 750 mmHg 66%
    06:00 +7°C° 0 mm 6 mps 750 mmHg 64%
    07:00 +8°C° 0 mm 6 mps 750 mmHg 63%
    08:00 +10°C° 0 mm 6 mps 750 mmHg 61%
    09:00 +13°C° 0 mm 6 mps 750 mmHg 60%
    10:00 +14°C° 0 mm 6 mps 749 mmHg 58%
    11:00 +15°C° 0 mm 6 mps 749 mmHg 56%
    12:00 +16°C° 0 mm 7 mps 749 mmHg 54%
    13:00 +17°C° 0 mm 7 mps 749 mmHg 54%
    14:00 +18°C° 0 mm 7 mps 748 mmHg 54%
    15:00 +19°C° 0 mm 6 mps 748 mmHg 54%
    16:00 +19°C° 0 mm 6 mps 747 mmHg 57%
    17:00 +17°C° 0 mm 6 mps 747 mmHg 60%
    18:00 +17°C° 0 mm 5 mps 747 mmHg 64%
    19:00 +16°C° 0 mm 5 mps 747 mmHg 66%
    20:00 +15°C° 0 mm 5 mps 747 mmHg 68%
    21:00 +13°C° 0 mm 4 mps 746 mmHg 71%
    22:00 +13°C° 0 mm 5 mps 746 mmHg 67%
    23:00 +14°C° 0 mm 5 mps 746 mmHg 64%

    Day after tomorrow, 26 May, Sunday

    Time Temperature Precipitation Wind Pressure Humidity
    00:00 +14°C° 0 mm 6 mps 746 mmHg 61%
    01:00 +13°C° 0.2 mm 5 mps 746 mmHg 65%
    02:00 +12°C° 0.2 mm 5 mps 745 mmHg 70%
    03:00 +11°C° 0.2 mm 4 mps 745 mmHg 74%
    04:00 +11°C° 0.1 mm 4 mps 745 mmHg 74%
    05:00 +10°C° 0.1 mm 5 mps 745 mmHg 75%
    06:00 +10°C° 0.1 mm 5 mps 744 mmHg 75%
    07:00 +11°C° 0 mm 6 mps 744 mmHg 74%
    08:00 +13°C° 0 mm 6 mps 744 mmHg 73%
    09:00 +14°C° 0 mm 7 mps 744 mmHg 71%
    10:00 +15°C° 0 mm 7 mps 744 mmHg 73%
    11:00 +16°C° 0 mm 7 mps 743 mmHg 74%
    12:00 +17°C° 0 mm 7 mps 743 mmHg 76%
    13:00 +17°C° 0.1 mm 7 mps 743 mmHg 76%
    14:00 +19°C° 0.1 mm 6 mps 742 mmHg 76%
    15:00 +20°C° 0.1 mm 6 mps 742 mmHg 76%
    16:00 +20°C° 0.6 mm 6 mps 742 mmHg 77%
    17:00 +20°C° 0.6 mm 5 mps 741 mmHg 77%
    18:00 +20°C° 0.6 mm 5 mps 741 mmHg 78%
    19:00 +19°C° 0.1 mm 4 mps 741 mmHg 83%
    20:00 +17°C° 0.1 mm 4 mps 741 mmHg 88%
    21:00 +14°C° 0.1 mm 3 mps 741 mmHg 93%
    22:00 +14°C° 0 mm 3 mps 741 mmHg 94%
    23:00 +15°C° 0 mm 2 mps 740 mmHg 95%

    27 May, Monday

    Time Temperature Precipitation Wind Pressure Humidity
    00:00 +15°C° 0 mm 2 mps 740 mmHg 96%
    01:00 +15°C° 0 mm 2 mps 740 mmHg 97%
    02:00 +15°C° 0 mm 2 mps 741 mmHg 97%
    03:00 +14°C° 0 mm 2 mps 741 mmHg 98%
    04:00 +14°C° 0 mm 3 mps 741 mmHg 96%
    05:00 +14°C° 0 mm 3 mps 741 mmHg 95%
    06:00 +14°C° 0 mm 3 mps 742 mmHg 94%
    07:00 +17°C° 0 mm 4 mps 742 mmHg 88%
    08:00 +19°C° 0 mm 5 mps 743 mmHg 81%
    09:00 +21°C° 0 mm 5 mps 744 mmHg 75%
    10:00 +21°C° 0 mm 6 mps 744 mmHg 70%
    11:00 +22°C° 0 mm 6 mps 744 mmHg 64%
    12:00 +23°C° 0 mm 6 mps 745 mmHg 59%
    13:00 +23°C° 0 mm 6 mps 745 mmHg 58%
    14:00 +23°C° 0 mm 6 mps 746 mmHg 56%
    15:00 +23°C° 0 mm 6 mps 746 mmHg 55%
    16:00 +22°C° 0 mm 5 mps 746 mmHg 59%
    17:00 +22°C° 0 mm 4 mps 747 mmHg 63%
    18:00 +21°C° 0 mm 3 mps 747 mmHg 67%
    19:00 +20°C° 0 mm 3 mps 747 mmHg 72%
    20:00 +18°C° 0 mm 3 mps 748 mmHg 77%
    21:00 +16°C° 0 mm 2 mps 748 mmHg 82%
    22:00 +16°C° 0 mm 2 mps 749 mmHg 84%
    23:00 +15°C° 0 mm 2 mps 749 mmHg 86%

    28 May, Tuesday

    Time Temperature Precipitation Wind Pressure Humidity
    00:00 +15°C° 0 mm 2 mps 749 mmHg 88%
    01:00 +15°C° 0 mm 2 mps 749 mmHg 89%
    02:00 +14°C° 0 mm 1 mps 750 mmHg 89%
    03:00 +14°C° 0 mm 1 mps 750 mmHg 90%
    04:00 +15°C° 0 mm 1 mps 750 mmHg 88%
    05:00 +16°C° 0 mm 1 mps 750 mmHg 86%
    06:00 +18°C° 0 mm 1 mps 751 mmHg 84%
    07:00 +19°C° 0 mm 1 mps 751 mmHg 77%
    08:00 +20°C° 0 mm 2 mps 751 mmHg 71%
    09:00 +23°C° 0 mm 2 mps 751 mmHg 65%
    10:00 +23°C° 0 mm 2 mps 751 mmHg 61%
    11:00 +24°C° 0 mm 2 mps 751 mmHg 57%
    12:00 +25°C° 0 mm 2 mps 751 mmHg 53%
    13:00 +26°C° 0 mm 2 mps 751 mmHg 53%
    14:00 +26°C° 0 mm 2 mps 751 mmHg 54%
    15:00 +26°C° 0 mm 2 mps 751 mmHg 55%
    16:00 +26°C° 0 mm 2 mps 751 mmHg 57%
    17:00 +26°C° 0 mm 2 mps 751 mmHg 60%
    18:00 +26°C° 0 mm 1 mps 751 mmHg 63%
    19:00 +24°C° 0 mm 1 mps 751 mmHg 69%
    20:00 +22°C° 0 mm 1 mps 752 mmHg 75%
    21:00 +21°C° 0 mm 1 mps 752 mmHg 81%
    22:00 +20°C° 0 mm 1 mps 752 mmHg 83%
    23:00 +20°C° 0 mm 1 mps 752 mmHg 86%

    29 May, Wednesday

    Time Temperature Precipitation Wind Pressure Humidity
    00:00 +19°C° 0 mm 1 mps 752 mmHg 88%
    01:00 +19°C° 0 mm 1 mps 752 mmHg 89%
    02:00 +18°C° 0 mm 2 mps 752 mmHg 90%
    03:00 +18°C° 0 mm 2 mps 752 mmHg 91%
    04:00 +18°C° 0 mm 2 mps 752 mmHg 90%
    05:00 +19°C° 0 mm 2 mps 752 mmHg 88%
    06:00 +20°C° 0 mm 2 mps 753 mmHg 86%
    07:00 +23°C° 0 mm 2 mps 753 mmHg 81%
    08:00 +24°C° 0 mm 2 mps 753 mmHg 75%
    09:00 +26°C° 0 mm 2 mps 753 mmHg 69%
    10:00 +27°C° 0 mm 2 mps 753 mmHg 65%
    11:00 +28°C° 0 mm 2 mps 752 mmHg 60%
    12:00 +29°C° 0 mm 2 mps 752 mmHg 56%
    13:00 +29°C° 0 mm 2 mps 752 mmHg 55%
    14:00 +30°C° 0 mm 2 mps 752 mmHg 53%
    15:00 +30°C° 0 mm 2 mps 752 mmHg 52%
    16:00 +30°C° 0 mm 2 mps 752 mmHg 56%
    17:00 +29°C° 0 mm 2 mps 752 mmHg 60%
    18:00 +29°C° 0 mm 2 mps 751 mmHg 64%
    19:00 +27°C° 0 mm 2 mps 752 mmHg 69%
    20:00 +25°C° 0 mm 2 mps 752 mmHg 73%
    21:00 +23°C° 0 mm 2 mps 752 mmHg 77%
    22:00 +23°C° 0 mm 2 mps 752 mmHg 78%
    23:00 +21°C° 0 mm 2 mps 752 mmHg 80%
    Show more